Owen Roberts, Cayman Islands

7:05 AM EST on August 22, 2017 (GMT -0500)
Roberts International

Weather History for MWCR - November, 2014

Change the Weather History Date:

Sunday, November 23, 2014

  Actual Average Record
Temperature  
Mean Temperature 82 °F -  
Max Temperature 87 °F 82 °F 87 °F (1997)
Min Temperature 77 °F 74 °F 69 °F (1999)
Cooling Degree Days 17    
Growing Degree Days 32 (Base 50)    
Moisture  
Dew Point 75 °F    
Average Humidity 77    
Maximum Humidity 89    
Minimum Humidity 64    
Precipitation  
Precipitation 0.00 in - - ()
Sea Level Pressure  
Sea Level Pressure 29.91 in    
Wind  
Wind Speed 6 mph ()    
Max Wind Speed 12 mph    
Max Gust Speed -    
Visibility 6.2 miles    
Events      
Averages and records for this station are not official NWS values.
T = Trace of Precipitation, MM = Missing Value Source: Averaged Metar Reports

Daily Weather History Graph

Daily Weather History Graph

Search for Another Location

Airport or City:

Trip Planner

Search our weather history database for the weather conditions in past years. The results will help you decide how hot, cold, wet, or windy it might be!

Date:

Astronomy

Nov. 23, 2014 Rise Set
Actual Time 6:37 AM EST 5:45 PM EST
Civil Twilight 6:14 AM EST 6:09 PM EST
Nautical Twilight 5:47 AM EST 6:35 PM EST
Astronomical Twilight 5:21 AM EST 7:02 PM EST
Moon 7:34 AM EST (11/23) 7:05 PM EST (11/23)
Length of Visible Light 11h 54m
Length of Day
11h 07m
New Moon, 2% of the Moon is Illuminated
Nov 23
New Moon
Nov 29
First Quarter
Dec 6
Full
Dec 14
Last Quarter
Dec 21
New

Hourly Weather History & Observations

Time (EST) Temp. Heat Index Dew Point Humidity Pressure Visibility Wind Dir Wind Speed Gust Speed Precip Events Conditions
5:52 AM 78.8 °F - 75.2 °F 89% 29.92 in 6.2 mi East 4.6 mph - N/A   Partly Cloudy
6:53 AM 78.8 °F - 75.2 °F 89% 29.92 in 6.2 mi East 3.5 mph - N/A   Partly Cloudy
7:00 AM 78 °F - 75 °F 87% 29.94 in 6 mi East 3.5 mph - -   Scattered Clouds
7:53 AM 80.6 °F 86.2 °F 75.2 °F 84% 29.95 in 6.2 mi East 5.8 mph - N/A   Partly Cloudy
8:52 AM 84.2 °F 92.3 °F 75.2 °F 74% 29.95 in 6.2 mi East 10.4 mph - N/A   Partly Cloudy
9:57 AM 84.2 °F 92.3 °F 75.2 °F 74% 29.95 in 6.2 mi ESE 10.4 mph - N/A   Partly Cloudy
10:54 AM 86.0 °F 95.1 °F 75.2 °F 70% 29.95 in 6.2 mi ESE 10.4 mph - N/A   Partly Cloudy
11:55 AM 87.8 °F 97.6 °F 75.2 °F 66% 29.95 in 6.2 mi ESE 11.5 mph - N/A   Partly Cloudy
12:50 PM 86.0 °F 95.1 °F 75.2 °F 70% 29.92 in 6.2 mi SE 10.4 mph - N/A   Partly Cloudy
1:00 PM 86 °F - 76 °F 64% 29.93 in 6 mi SE 10.4 mph - -   Scattered Clouds
2:00 PM 86.0 °F 95.1 °F 75.2 °F 70% 29.86 in 6.2 mi SE 10.4 mph - N/A   Partly Cloudy
3:00 PM 84.2 °F 92.3 °F 75.2 °F 74% 29.86 in 6.2 mi ESE 10.4 mph - N/A   Partly Cloudy
4:00 PM 84.2 °F 92.3 °F 75.2 °F 74% 29.86 in 6.2 mi SE 10.4 mph - N/A   Partly Cloudy
5:00 PM 84.2 °F 90.9 °F 73.4 °F 70% 29.86 in 6.2 mi SE 8.1 mph - N/A   Partly Cloudy
6:00 PM 82.4 °F 88.2 °F 73.4 °F 74% 29.86 in 6.2 mi SE 6.9 mph - N/A   Partly Cloudy
7:00 PM 82 °F - 75 °F 73% 29.90 in 6 mi East 5.8 mph - -   Scattered Clouds
7:00 PM 82.4 °F 89.5 °F 75.2 °F 79% 29.89 in 6.2 mi East 5.8 mph - N/A   Partly Cloudy
8:00 PM 80.6 °F 86.2 °F 75.2 °F 84% 29.92 in 6.2 mi East 4.6 mph - N/A   Partly Cloudy
9:00 PM 80.6 °F 86.2 °F 75.2 °F 84% 29.92 in 6.2 mi ESE 4.6 mph - N/A   Partly Cloudy
10:00 PM 80.6 °F 86.2 °F 75.2 °F 84% 29.92 in 6.2 mi ESE 4.6 mph - N/A   Partly Cloudy